This is the latest recevied weather packets stored in our database for station/object KF7SOJ. If no packets are shown the sender has not sent any weather packets the latest 10 day(s).
| Time | Temp. | Humidity | Pressure | Rain* | Wind** | Luminosity | Snow |
|---|---|---|---|---|---|---|---|
| 1788173369 | 10° C | 72% | 932 hPa | 0 mm | - | 0 W/m² | - |
| 1788173065 | 10.56° C | 71% | 931.9 hPa | 0 mm | - | 0 W/m² | - |
| 1788172761 | 10.56° C | 68% | 932 hPa | 0 mm | - | 0 W/m² | - |
| 1788172461 | 10.56° C | 66% | 932 hPa | 0 mm | - | 0 W/m² | - |
| 1788172156 | 10° C | 66% | 932 hPa | 0 mm | - | 0 W/m² | - |
| 1788171855 | 10° C | 65% | 932 hPa | 0 mm | - | 0 W/m² | - |
| 1788171551 | 10.56° C | 64% | 931.8 hPa | 0 mm | - | 0 W/m² | - |
| 1788171246 | 11.11° C | 60% | 932 hPa | 0 mm | - | 0 W/m² | - |
| 1788170942 | 10.56° C | 61% | 931.9 hPa | 0 mm | - | 0 W/m² | - |
| 1788170638 | 10.56° C | 61% | 931.8 hPa | 0 mm | - | 0 W/m² | - |
| 1788170338 | 12.78° C | 55% | 931.9 hPa | 0 mm | - | 0 W/m² | - |
| 1788170037 | 12.78° C | 49% | 931.9 hPa | 0 mm | - | 0 W/m² | - |
| 1788169732 | 12.78° C | 51% | 931.8 hPa | 0 mm | - | 0 W/m² | - |
| 1788169428 | 12.78° C | 50% | 931.7 hPa | 0 mm | - | 0 W/m² | - |
| 1788169124 | 12.22° C | 54% | 931.8 hPa | 0 mm | - | 0 W/m² | - |
| 1788168819 | 11.67° C | 54% | 931.8 hPa | 0 mm | - | 0 W/m² | - |
| 1788168515 | 11.67° C | 57% | 931.8 hPa | 0 mm | - | 0 W/m² | - |
| 1788168211 | 10.56° C | 59% | 931.7 hPa | 0 mm | - | 0 W/m² | - |
| 1788167906 | 10.56° C | 65% | 931.8 hPa | 0 mm | - | 0 W/m² | - |
| 1788167601 | 11.67° C | 61% | 931.7 hPa | 0 mm | - | 0 W/m² | - |
| 1788167296 | 13.89° C | 53% | 931.7 hPa | 0 mm | - | 0 W/m² | - |
| 1788167001 | 13.89° C | 45% | 931.6 hPa | 0 mm | - | 0 W/m² | - |
| 1788166689 | 13.89° C | 45% | 931.6 hPa | 0 mm | - | 0 W/m² | - |
| 1788166383 | 13.89° C | 46% | 931.5 hPa | 0 mm | - | 0 W/m² | - |
| 1788166078 | 13.89° C | 46% | 931.4 hPa | 0 mm | - | 0 W/m² | - |
* Rain latest hour (hover to see other rain measurements)
** Current wind speed in m/s (hover to see current wind gust speed)